VOZ1281 YSSY-YBHM

Flight info

Callsign VOZ1281
Flight time 2h 14m
Altitude 36000
Route TESAT H530 LASUD Q238 DUPUG Q141 OVRON
Aircraft B738/M-SDE2E3FGHIRWXY/LB1

Departure

Time 2026-04-21 01:49
Airport Sydney Kingsford Smith International Airport (YSSY)

Arrival

Time 2026-04-21 04:03
Airport Hamilton Island Airport (YBHM)
Time Latitude Longitude Altitude Speed Heading
2026-04-21 01:26 -33.93597 151.17991 29 ft 0 kts 280°
2026-04-21 01:36 -33.93598 151.17991 29 ft 1 kts 280°
2026-04-21 01:36 -33.93600 151.18009 29 ft 3 kts 269°
2026-04-21 01:36 -33.93597 151.18032 29 ft 3 kts 244°
2026-04-21 01:36 -33.93587 151.18049 29 ft 3 kts 205°
2026-04-21 01:37 -33.93574 151.18054 29 ft 1 kts 182°
2026-04-21 01:37 -33.93570 151.18054 29 ft 0 kts 182°
2026-04-21 01:40 -33.93577 151.18054 29 ft 5 kts 182°
2026-04-21 01:40 -33.93642 151.18051 29 ft 10 kts 182°
2026-04-21 01:41 -33.93749 151.18065 29 ft 14 kts 182°
2026-04-21 01:41 -33.93794 151.17972 29 ft 19 kts 254°
2026-04-21 01:41 -33.93838 151.17781 29 ft 29 kts 254°
2026-04-21 01:41 -33.93858 151.17695 28 ft 6 kts 254°
2026-04-21 01:42 -33.93868 151.17633 28 ft 9 kts 276°
2026-04-21 01:42 -33.93816 151.17589 28 ft 11 kts 348°
2026-04-21 01:42 -33.93735 151.17568 28 ft 13 kts 347°
2026-04-21 01:42 -33.93637 151.17542 28 ft 15 kts 348°
2026-04-21 01:43 -33.93564 151.17524 28 ft 17 kts 348°
2026-04-21 01:43 -33.93406 151.17507 29 ft 18 kts
2026-04-21 01:43 -33.93325 151.17489 29 ft 19 kts 347°
2026-04-21 01:43 -33.93154 151.17445 29 ft 19 kts 347°
2026-04-21 01:44 -33.93023 151.17410 29 ft 20 kts 347°
2026-04-21 01:44 -33.92961 151.17336 29 ft 20 kts 283°
2026-04-21 01:44 -33.92958 151.17317 30 ft 0 kts 277°
2026-04-21 01:47 -33.92956 151.17291 30 ft 8 kts 277°
2026-04-21 01:47 -33.92978 151.17196 29 ft 16 kts 222°
2026-04-21 01:47 -33.93062 151.17191 29 ft 0 kts 167°
2026-04-21 01:48 -33.93178 151.17221 30 ft 55 kts 168°
2026-04-21 01:48 -33.93849 151.17394 30 ft 139 kts 168°
2026-04-21 01:48 -33.95010 151.17690 221 ft 193 kts 168°
2026-04-21 01:49 -33.96375 151.18040 1085 ft 208 kts 168°
2026-04-21 01:49 -33.97874 151.18236 1782 ft 228 kts 186°
2026-04-21 01:49 -33.99440 151.18014 2719 ft 220 kts 187°
2026-04-21 01:49 -34.00921 151.17775 3577 ft 211 kts 188°
2026-04-21 01:50 -34.02377 151.17550 4275 ft 208 kts 186°
2026-04-21 01:50 -34.03793 151.17661 5029 ft 205 kts 167°
2026-04-21 01:50 -34.05223 151.18077 5361 ft 222 kts 167°
2026-04-21 01:50 -34.06788 151.18596 5574 ft 243 kts 162°
2026-04-21 01:51 -34.08471 151.19267 5787 ft 266 kts 162°
2026-04-21 01:51 -34.10277 151.19945 6366 ft 275 kts 163°
2026-04-21 01:51 -34.12114 151.20613 7232 ft 276 kts 164°
2026-04-21 01:51 -34.13969 151.21256 8041 ft 279 kts 165°
2026-04-21 01:52 -34.15848 151.21891 8806 ft 282 kts 165°
2026-04-21 01:52 -34.19762 151.22555 10068 ft 299 kts 195°
2026-04-21 01:52 -34.21595 151.21323 10503 ft 310 kts 224°
2026-04-21 01:53 -34.23044 151.19364 11186 ft 315 kts 231°
2026-04-21 01:53 -34.24117 151.16992 11431 ft 335 kts 257°
2026-04-21 01:53 -34.24124 151.14152 11939 ft 344 kts 285°
2026-04-21 01:53 -34.23066 151.11602 12630 ft 347 kts 307°
2026-04-21 01:54 -34.21372 151.09516 13339 ft 350 kts 323°
2026-04-21 01:54 -34.19316 151.07911 14008 ft 354 kts 329°
2026-04-21 01:54 -34.17147 151.06460 14653 ft 358 kts 331°
2026-04-21 01:54 -34.14933 151.05038 15273 ft 363 kts 332°
2026-04-21 01:55 -34.12690 151.03596 15904 ft 366 kts 331°
2026-04-21 01:55 -34.10441 151.02132 16538 ft 369 kts 331°
2026-04-21 01:55 -34.08173 151.00635 17152 ft 373 kts 331°
2026-04-21 01:55 -34.05891 150.99113 17745 ft 376 kts 330°
2026-04-21 01:56 -34.03592 150.97571 18326 ft 379 kts 330°
2026-04-21 01:56 -34.01284 150.96016 18890 ft 382 kts 330°
2026-04-21 01:56 -33.98952 150.94443 19449 ft 385 kts 330°
2026-04-21 01:56 -33.96629 150.92874 19987 ft 388 kts 330°
2026-04-21 01:57 -33.94265 150.91280 20513 ft 391 kts 330°
2026-04-21 01:57 -33.91878 150.89669 21023 ft 395 kts 330°
2026-04-21 01:57 -33.89476 150.88050 21511 ft 398 kts 330°
2026-04-21 01:57 -33.87051 150.86417 21991 ft 401 kts 330°
2026-04-21 01:58 -33.84605 150.84770 22454 ft 404 kts 330°
2026-04-21 01:58 -33.82143 150.83115 22916 ft 407 kts 330°
2026-04-21 01:58 -33.79665 150.81449 23365 ft 409 kts 330°
2026-04-21 01:58 -33.77167 150.79784 23815 ft 412 kts 332°
2026-04-21 01:59 -33.74552 150.78363 24285 ft 413 kts 337°
2026-04-21 01:59 -33.71881 150.77090 24731 ft 415 kts 339°
2026-04-21 01:59 -33.69177 150.75852 25130 ft 418 kts 339°
2026-04-21 01:59 -33.66442 150.74607 25495 ft 421 kts 339°
2026-04-21 02:00 -33.63696 150.73348 25871 ft 423 kts 339°
2026-04-21 02:00 -33.60945 150.72073 26246 ft 425 kts 338°
2026-04-21 02:00 -33.58182 150.70780 26610 ft 428 kts 338°
2026-04-21 02:00 -33.55401 150.69471 26950 ft 430 kts 338°
2026-04-21 02:01 -33.52603 150.68149 27271 ft 433 kts 338°
2026-04-21 02:01 -33.49796 150.66821 27600 ft 435 kts 338°
2026-04-21 02:01 -33.46961 150.65480 27921 ft 438 kts 338°
2026-04-21 02:01 -33.44116 150.64134 28154 ft 442 kts 338°
2026-04-21 02:02 -33.41285 150.62796 28448 ft 444 kts 338°
2026-04-21 02:02 -33.38411 150.61439 28807 ft 444 kts 338°
2026-04-21 02:02 -33.35526 150.60078 29142 ft 445 kts 338°
2026-04-21 02:02 -33.32639 150.58717 29394 ft 448 kts 338°
2026-04-21 02:03 -33.29726 150.57345 29628 ft 451 kts 338°
2026-04-21 02:03 -33.26797 150.55966 29901 ft 453 kts 338°
2026-04-21 02:03 -33.23859 150.54584 30185 ft 454 kts 338°
2026-04-21 02:03 -33.20912 150.53199 30410 ft 457 kts 338°
2026-04-21 02:04 -33.17942 150.51804 30724 ft 456 kts 338°
2026-04-21 02:04 -33.14992 150.50420 31058 ft 456 kts 338°
2026-04-21 02:04 -33.12041 150.49036 31382 ft 455 kts 338°
2026-04-21 02:04 -33.09088 150.47652 31657 ft 456 kts 338°
2026-04-21 02:05 -33.06138 150.46270 31979 ft 455 kts 338°
2026-04-21 02:05 -33.03197 150.44894 32272 ft 454 kts 338°
2026-04-21 02:05 -33.00286 150.43533 32559 ft 454 kts 338°
2026-04-21 02:05 -32.97345 150.42159 32881 ft 453 kts 338°
2026-04-21 02:06 -32.94414 150.40790 33170 ft 452 kts 338°
2026-04-21 02:06 -32.91484 150.39423 33400 ft 453 kts 338°
2026-04-21 02:06 -32.88544 150.38052 33626 ft 453 kts 338°
2026-04-21 02:06 -32.85605 150.36683 33890 ft 453 kts 338°
2026-04-21 02:07 -32.82673 150.35317 34095 ft 454 kts 338°
2026-04-21 02:07 -32.79722 150.33944 34348 ft 453 kts 338°
2026-04-21 02:07 -32.76807 150.32589 34788 ft 448 kts 338°
2026-04-21 02:07 -32.73910 150.31243 35061 ft 446 kts 338°
2026-04-21 02:08 -32.71022 150.29902 35314 ft 446 kts 338°
2026-04-21 02:08 -32.68125 150.28558 35443 ft 448 kts 338°
2026-04-21 02:08 -32.65215 150.27208 35558 ft 450 kts 338°
2026-04-21 02:08 -32.62299 150.25857 35810 ft 448 kts 338°
2026-04-21 02:09 -32.59434 150.24531 35991 ft 446 kts 338°
2026-04-21 02:09 -32.53643 150.21852 36004 ft 447 kts 338°
2026-04-21 02:10 -32.47821 150.19163 36011 ft 449 kts 338°
2026-04-21 02:10 -32.41985 150.16471 36002 ft 451 kts 338°
2026-04-21 02:11 -32.36127 150.13773 36001 ft 451 kts 338°
2026-04-21 02:11 -32.30314 150.11099 35999 ft 450 kts 338°
2026-04-21 02:12 -32.24479 150.08419 36002 ft 449 kts 338°
2026-04-21 02:12 -32.18658 150.05749 35998 ft 448 kts 338°
2026-04-21 02:13 -32.12849 150.03088 35998 ft 446 kts 338°
2026-04-21 02:13 -32.07065 150.00442 36000 ft 445 kts 338°
2026-04-21 02:14 -32.01291 149.97804 35999 ft 444 kts 339°
2026-04-21 02:14 -31.95530 149.95176 36001 ft 444 kts 339°
2026-04-21 02:15 -31.89797 149.92564 36003 ft 444 kts 339°
2026-04-21 02:15 -31.84038 149.89944 36004 ft 444 kts 339°
2026-04-21 02:16 -31.78267 149.87322 36001 ft 445 kts 339°
2026-04-21 02:16 -31.72467 149.84690 36007 ft 447 kts 339°
2026-04-21 02:17 -31.66651 149.82054 35996 ft 449 kts 339°
2026-04-21 02:17 -31.60850 149.79429 36010 ft 449 kts 339°
2026-04-21 02:18 -31.55001 149.76786 36002 ft 451 kts 339°
2026-04-21 02:18 -31.49144 149.74142 36004 ft 451 kts 339°
2026-04-21 02:19 -31.43286 149.71502 35999 ft 450 kts 339°
2026-04-21 02:19 -31.37469 149.68884 35998 ft 450 kts 339°
2026-04-21 02:20 -31.31635 149.66261 35999 ft 449 kts 339°
2026-04-21 02:20 -31.25806 149.63645 36004 ft 448 kts 339°
2026-04-21 02:21 -31.19992 149.61038 36001 ft 447 kts 339°
2026-04-21 02:21 -31.14219 149.58453 35997 ft 446 kts 339°
2026-04-21 02:22 -31.08426 149.55863 36001 ft 445 kts 339°
2026-04-21 02:22 -31.02640 149.53279 36001 ft 445 kts 339°
2026-04-21 02:23 -30.96855 149.50699 35999 ft 444 kts 339°
2026-04-21 02:23 -30.91112 149.48141 36003 ft 444 kts 339°
2026-04-21 02:24 -30.85340 149.45573 36000 ft 444 kts 339°
2026-04-21 02:24 -30.79561 149.43006 36002 ft 444 kts 339°
2026-04-21 02:25 -30.73771 149.40437 36003 ft 445 kts 339°
2026-04-21 02:25 -30.67982 149.37872 36004 ft 445 kts 339°
2026-04-21 02:26 -30.62194 149.35310 36004 ft 445 kts 339°
2026-04-21 02:26 -30.56424 149.32760 36004 ft 446 kts 339°
2026-04-21 02:27 -30.50624 149.30200 35999 ft 446 kts 339°
2026-04-21 02:27 -30.44826 149.27644 36003 ft 446 kts 339°
2026-04-21 02:28 -30.39023 149.25089 36003 ft 446 kts 339°
2026-04-21 02:28 -30.33225 149.22539 35999 ft 446 kts 339°
2026-04-21 02:29 -30.28402 149.20421 35999 ft 445 kts 339°
2026-04-21 02:29 -30.22607 149.17878 36002 ft 445 kts 339°
2026-04-21 02:30 -30.16810 149.15338 36003 ft 445 kts 339°
2026-04-21 02:30 -30.11022 149.12806 36002 ft 445 kts 339°
2026-04-21 02:31 -30.05235 149.10276 36003 ft 444 kts 339°
2026-04-21 02:31 -29.99451 149.07751 36003 ft 444 kts 339°
2026-04-21 02:32 -29.93673 149.05232 36002 ft 444 kts 339°
2026-04-21 02:32 -29.87897 149.02717 36002 ft 444 kts 339°
2026-04-21 02:33 -29.82159 149.00222 36002 ft 444 kts 339°
2026-04-21 02:33 -29.76366 148.97706 36001 ft 444 kts 339°
2026-04-21 02:34 -29.70589 148.95200 36002 ft 444 kts 339°
2026-04-21 02:34 -29.64807 148.92695 36003 ft 444 kts 339°
2026-04-21 02:35 -29.59023 148.90191 36003 ft 444 kts 339°
2026-04-21 02:35 -29.53240 148.87692 36002 ft 444 kts 339°
2026-04-21 02:36 -29.47490 148.85209 36004 ft 444 kts 339°
2026-04-21 02:36 -29.41700 148.82713 36003 ft 444 kts 339°
2026-04-21 02:37 -29.35904 148.80217 36000 ft 444 kts 339°
2026-04-21 02:37 -29.30113 148.77726 36002 ft 444 kts 339°
2026-04-21 02:38 -29.24316 148.75235 36001 ft 444 kts 339°
2026-04-21 02:38 -29.18521 148.72748 36003 ft 445 kts 339°
2026-04-21 02:39 -29.12733 148.70267 36002 ft 444 kts 339°
2026-04-21 02:39 -29.06938 148.67786 36001 ft 444 kts 339°
2026-04-21 02:40 -29.00996 148.66079 35996 ft 444 kts 355°
2026-04-21 02:40 -28.94815 148.65684 35996 ft 444 kts 357°
2026-04-21 02:41 -28.88637 148.65340 36000 ft 444 kts 356°
2026-04-21 02:41 -28.82446 148.64951 35999 ft 444 kts 356°
2026-04-21 02:42 -28.76306 148.64538 36004 ft 445 kts 356°
2026-04-21 02:42 -28.70128 148.64117 36000 ft 445 kts 356°
2026-04-21 02:43 -28.63951 148.63696 36000 ft 445 kts 356°
2026-04-21 02:43 -28.57768 148.63277 36000 ft 445 kts 356°
2026-04-21 02:44 -28.51583 148.62858 35999 ft 445 kts 356°
2026-04-21 02:44 -28.45391 148.62439 36003 ft 445 kts 356°
2026-04-21 02:45 -28.39210 148.62022 36002 ft 445 kts 356°
2026-04-21 02:45 -28.33018 148.61604 36002 ft 445 kts 356°
2026-04-21 02:46 -28.26870 148.61190 36002 ft 445 kts 356°
2026-04-21 02:46 -28.20679 148.60773 36003 ft 445 kts 356°
2026-04-21 02:47 -28.14494 148.60358 36003 ft 445 kts 356°
2026-04-21 02:47 -28.08310 148.59942 36003 ft 445 kts 356°
2026-04-21 02:48 -28.02124 148.59528 36000 ft 445 kts 356°
2026-04-21 02:48 -27.95932 148.59116 35999 ft 445 kts 356°
2026-04-21 02:49 -27.89752 148.58706 36002 ft 445 kts 356°
2026-04-21 02:49 -27.83603 148.58298 36003 ft 445 kts 356°
2026-04-21 02:50 -27.77421 148.57888 36000 ft 445 kts 356°
2026-04-21 02:50 -27.71244 148.57479 36000 ft 445 kts 356°
2026-04-21 02:51 -27.65058 148.57070 36000 ft 445 kts 356°
2026-04-21 02:51 -27.58882 148.56662 36000 ft 445 kts 356°
2026-04-21 02:52 -27.52696 148.56253 36000 ft 445 kts 356°
2026-04-21 02:52 -27.46509 148.55845 36000 ft 445 kts 356°
2026-04-21 02:53 -27.40325 148.55438 36000 ft 445 kts 356°
2026-04-21 02:53 -27.34183 148.55034 36000 ft 445 kts 356°
2026-04-21 02:54 -27.27998 148.54627 36002 ft 445 kts 356°
2026-04-21 02:54 -27.21812 148.54221 36002 ft 445 kts 356°
2026-04-21 02:55 -27.15628 148.53816 36000 ft 445 kts 356°
2026-04-21 02:55 -27.09435 148.53410 35999 ft 445 kts 356°
2026-04-21 02:56 -27.03239 148.53005 36003 ft 445 kts 356°
2026-04-21 02:56 -26.93988 148.52400 36000 ft 445 kts 356°
2026-04-21 02:57 -26.87795 148.51996 36001 ft 446 kts 356°
2026-04-21 02:57 -26.81607 148.51593 36001 ft 446 kts 356°
2026-04-21 02:58 -26.75412 148.51189 36002 ft 446 kts 356°
2026-04-21 02:58 -26.69211 148.50786 36000 ft 446 kts 356°
2026-04-21 02:59 -26.63010 148.50383 36003 ft 446 kts 356°
2026-04-21 02:59 -26.56849 148.49984 36003 ft 446 kts 356°
2026-04-21 03:00 -26.50655 148.49582 36004 ft 446 kts 356°
2026-04-21 03:00 -26.44460 148.49181 36000 ft 446 kts 356°
2026-04-21 03:01 -26.38294 148.48782 35999 ft 446 kts 356°
2026-04-21 03:01 -26.32099 148.48382 36000 ft 446 kts 356°
2026-04-21 03:02 -26.25902 148.47982 36000 ft 446 kts 356°
2026-04-21 03:02 -26.19703 148.47582 36000 ft 446 kts 356°
2026-04-21 03:03 -26.13508 148.47183 36000 ft 446 kts 356°
2026-04-21 03:03 -26.07315 148.46784 36000 ft 446 kts 356°
2026-04-21 03:04 -26.01119 148.46755 35986 ft 446 kts
2026-04-21 03:04 -25.95010 148.48020 36001 ft 446 kts 11°
2026-04-21 03:05 -25.88921 148.49367 35999 ft 446 kts 11°
2026-04-21 03:05 -25.82868 148.50669 36002 ft 446 kts 10°
2026-04-21 03:06 -25.76758 148.51951 36002 ft 446 kts 10°
2026-04-21 03:06 -25.70642 148.53222 36002 ft 447 kts 10°
2026-04-21 03:07 -25.64565 148.54482 36002 ft 447 kts 10°
2026-04-21 03:07 -25.58452 148.55750 36000 ft 447 kts 10°
2026-04-21 03:08 -25.52341 148.57016 36001 ft 447 kts 10°
2026-04-21 03:08 -25.46220 148.58283 36006 ft 447 kts 10°
2026-04-21 03:09 -25.40107 148.59547 36000 ft 447 kts 10°
2026-04-21 03:09 -25.33977 148.60814 36002 ft 447 kts 10°
2026-04-21 03:10 -25.27858 148.62077 36002 ft 447 kts 10°
2026-04-21 03:10 -25.21778 148.63331 36002 ft 447 kts 10°
2026-04-21 03:11 -25.15655 148.64592 36008 ft 447 kts 10°
2026-04-21 03:11 -25.09534 148.65851 36000 ft 447 kts 10°
2026-04-21 03:12 -25.03415 148.67109 36001 ft 446 kts 10°
2026-04-21 03:12 -24.97349 148.68355 36000 ft 446 kts 10°
2026-04-21 03:13 -24.91242 148.69607 36000 ft 445 kts 10°
2026-04-21 03:13 -24.85133 148.70859 36000 ft 445 kts 10°
2026-04-21 03:14 -24.79044 148.72106 36000 ft 445 kts 10°
2026-04-21 03:14 -24.73005 148.73341 36002 ft 444 kts 10°
2026-04-21 03:15 -24.66930 148.74582 36001 ft 444 kts 10°
2026-04-21 03:15 -24.60848 148.75823 36000 ft 444 kts 10°
2026-04-21 03:16 -24.54771 148.77063 36000 ft 444 kts 10°
2026-04-21 03:16 -24.49728 148.78090 36002 ft 444 kts 10°
2026-04-21 03:17 -24.43646 148.79328 36004 ft 444 kts 10°
2026-04-21 03:17 -24.37565 148.80565 36003 ft 444 kts 10°
2026-04-21 03:18 -24.31484 148.81800 36005 ft 444 kts 10°
2026-04-21 03:18 -24.25398 148.83035 36003 ft 445 kts 10°
2026-04-21 03:19 -24.19307 148.84270 36003 ft 445 kts 10°
2026-04-21 03:19 -24.13217 148.85504 36000 ft 445 kts 10°
2026-04-21 03:20 -24.07156 148.86730 36000 ft 445 kts 10°
2026-04-21 03:20 -24.01063 148.87962 36002 ft 445 kts 10°
2026-04-21 03:21 -23.94962 148.89194 36001 ft 445 kts 10°
2026-04-21 03:21 -23.88862 148.90425 36000 ft 446 kts 10°
2026-04-21 03:22 -23.82760 148.91655 36004 ft 446 kts 10°
2026-04-21 03:22 -23.76661 148.92883 36004 ft 446 kts 10°
2026-04-21 03:23 -23.70562 148.94111 36002 ft 445 kts 10°
2026-04-21 03:23 -23.64465 148.95336 36003 ft 445 kts 10°
2026-04-21 03:24 -23.58370 148.96560 36003 ft 445 kts 10°
2026-04-21 03:24 -23.52286 148.97781 36000 ft 445 kts 10°
2026-04-21 03:25 -23.46234 148.98994 36005 ft 444 kts 10°
2026-04-21 03:25 -23.40149 149.00213 36005 ft 444 kts 10°
2026-04-21 03:26 -23.34064 149.01430 36001 ft 444 kts 10°
2026-04-21 03:26 -23.27992 149.02644 36002 ft 444 kts 10°
2026-04-21 03:27 -23.21921 149.03856 36001 ft 443 kts 10°
2026-04-21 03:27 -23.15851 149.05067 36002 ft 443 kts 10°
2026-04-21 03:28 -23.09786 149.06276 36000 ft 443 kts 10°
2026-04-21 03:28 -23.03713 149.07485 36001 ft 443 kts 10°
2026-04-21 03:29 -22.97688 149.08684 35999 ft 443 kts 10°
2026-04-21 03:29 -22.91616 149.09891 35999 ft 443 kts 10°
2026-04-21 03:30 -22.85549 149.11096 36007 ft 443 kts 10°
2026-04-21 03:30 -22.79430 149.11924 35991 ft 443 kts 358°
2026-04-21 03:31 -22.73270 149.11620 36002 ft 443 kts 356°
2026-04-21 03:31 -22.67156 149.11258 36002 ft 443 kts 356°
2026-04-21 03:32 -22.60992 149.10933 35999 ft 443 kts 357°
2026-04-21 03:32 -22.54821 149.10634 36000 ft 444 kts 357°
2026-04-21 03:33 -22.48652 149.10345 35571 ft 439 kts 357°
2026-04-21 03:33 -22.45623 149.10203 35186 ft 434 kts 357°
2026-04-21 03:33 -22.42616 149.10062 34788 ft 430 kts 357°
2026-04-21 03:34 -22.39642 149.09922 34395 ft 426 kts 357°
2026-04-21 03:34 -22.36693 149.09783 33997 ft 423 kts 357°
2026-04-21 03:34 -22.33757 149.09645 33598 ft 420 kts 357°
2026-04-21 03:34 -22.30857 149.09508 33204 ft 416 kts 357°
2026-04-21 03:35 -22.27972 149.09372 32809 ft 413 kts 357°
2026-04-21 03:35 -22.25108 149.09237 32418 ft 410 kts 357°
2026-04-21 03:35 -22.22263 149.09103 32027 ft 408 kts 357°
2026-04-21 03:35 -22.19433 149.08970 31644 ft 405 kts 357°
2026-04-21 03:36 -22.16633 149.08838 31262 ft 402 kts 357°
2026-04-21 03:36 -22.13877 149.08708 30884 ft 399 kts 357°
2026-04-21 03:36 -22.11110 149.08578 30511 ft 397 kts 357°
2026-04-21 03:36 -22.08357 149.08449 30136 ft 394 kts 357°
2026-04-21 03:37 -22.05623 149.08320 29768 ft 391 kts 357°
2026-04-21 03:37 -22.02913 149.08193 29388 ft 388 kts 357°
2026-04-21 03:37 -22.00219 149.08067 29002 ft 386 kts 357°
2026-04-21 03:37 -21.97539 149.07941 28617 ft 383 kts 357°
2026-04-21 03:38 -21.94885 149.07816 28235 ft 381 kts 357°
2026-04-21 03:38 -21.92248 149.07693 27856 ft 378 kts 357°
2026-04-21 03:38 -21.89626 149.07570 27467 ft 376 kts 357°
2026-04-21 03:38 -21.87022 149.07447 27100 ft 373 kts 357°
2026-04-21 03:39 -21.84468 149.07328 26734 ft 371 kts 357°
2026-04-21 03:39 -21.81897 149.07207 26365 ft 368 kts 357°
2026-04-21 03:39 -21.79342 149.07087 25996 ft 366 kts 357°
2026-04-21 03:39 -21.76803 149.06968 25622 ft 364 kts 357°
2026-04-21 03:40 -21.74279 149.06850 25262 ft 362 kts 357°
2026-04-21 03:40 -21.71770 149.06733 24897 ft 359 kts 357°
2026-04-21 03:40 -21.69277 149.06589 24535 ft 357 kts 356°
2026-04-21 03:40 -21.66800 149.06395 24178 ft 355 kts 355°
2026-04-21 03:41 -21.64342 149.06185 23814 ft 353 kts 355°
2026-04-21 03:41 -21.61899 149.05973 23456 ft 351 kts 355°
2026-04-21 03:41 -21.59472 149.05764 23098 ft 349 kts 355°
2026-04-21 03:41 -21.57085 149.05561 22746 ft 347 kts 355°
2026-04-21 03:42 -21.54686 149.05360 22399 ft 345 kts 355°
2026-04-21 03:42 -21.52296 149.05161 22051 ft 343 kts 355°
2026-04-21 03:42 -21.49920 149.04964 21700 ft 341 kts 355°
2026-04-21 03:42 -21.47556 149.04769 21356 ft 340 kts 355°
2026-04-21 03:43 -21.45204 149.04576 21005 ft 338 kts 355°
2026-04-21 03:43 -21.42866 149.04384 20661 ft 336 kts 355°
2026-04-21 03:43 -21.40540 149.04193 20321 ft 334 kts 355°
2026-04-21 03:43 -21.38228 149.04003 19977 ft 332 kts 355°
2026-04-21 03:44 -21.35929 149.03815 19638 ft 330 kts 355°
2026-04-21 03:44 -21.33641 149.03627 19301 ft 329 kts 355°
2026-04-21 03:44 -21.31364 149.03440 18960 ft 327 kts 355°
2026-04-21 03:44 -21.29104 149.03255 18629 ft 325 kts 355°
2026-04-21 03:45 -21.26854 149.03071 18296 ft 323 kts 355°
2026-04-21 03:45 -21.24642 149.02890 17965 ft 322 kts 355°
2026-04-21 03:45 -21.22418 149.02708 17633 ft 320 kts 355°
2026-04-21 03:45 -21.20201 149.02527 17307 ft 318 kts 355°
2026-04-21 03:46 -21.17997 149.02346 16965 ft 317 kts 355°
2026-04-21 03:46 -21.15802 149.02167 16651 ft 315 kts 355°
2026-04-21 03:46 -21.13623 149.01989 16327 ft 313 kts 355°
2026-04-21 03:46 -21.11453 149.01811 16002 ft 312 kts 355°
2026-04-21 03:47 -21.09296 149.01635 15684 ft 310 kts 355°
2026-04-21 03:47 -21.07148 149.01460 15359 ft 309 kts 355°
2026-04-21 03:47 -21.05013 149.01285 15035 ft 307 kts 355°
2026-04-21 03:47 -21.02882 149.01112 14718 ft 306 kts 355°
2026-04-21 03:48 -21.00766 149.00939 14397 ft 304 kts 355°
2026-04-21 03:48 -20.98657 149.00767 14079 ft 303 kts 355°
2026-04-21 03:48 -20.96588 149.00598 13766 ft 301 kts 355°
2026-04-21 03:48 -20.94499 149.00428 13446 ft 300 kts 355°
2026-04-21 03:49 -20.92422 149.00258 13142 ft 299 kts 355°
2026-04-21 03:49 -20.90356 149.00090 12827 ft 297 kts 355°
2026-04-21 03:49 -20.88298 148.99922 12512 ft 296 kts 355°
2026-04-21 03:49 -20.86251 148.99756 12204 ft 294 kts 355°
2026-04-21 03:50 -20.84213 148.99590 11898 ft 293 kts 355°
2026-04-21 03:50 -20.82187 148.99425 11586 ft 291 kts 355°
2026-04-21 03:50 -20.80171 148.99261 11279 ft 290 kts 355°
2026-04-21 03:50 -20.78153 148.99096 10929 ft 290 kts 355°
2026-04-21 03:51 -20.76155 148.98934 10905 ft 285 kts 355°
2026-04-21 03:51 -20.74207 148.98775 10884 ft 276 kts 355°
2026-04-21 03:51 -20.72328 148.98623 10872 ft 264 kts 355°
2026-04-21 03:51 -20.70539 148.98477 10870 ft 251 kts 355°
2026-04-21 03:52 -20.68837 148.98339 10873 ft 240 kts 355°
2026-04-21 03:52 -20.67180 148.98204 10552 ft 248 kts 355°
2026-04-21 03:52 -20.65379 148.98057 9765 ft 270 kts 355°
2026-04-21 03:52 -20.63480 148.97903 9329 ft 275 kts 355°
2026-04-21 03:53 -20.61571 148.97748 9042 ft 274 kts 355°
2026-04-21 03:53 -20.59678 148.97595 8779 ft 272 kts 355°
2026-04-21 03:53 -20.57794 148.97442 8497 ft 271 kts 355°
2026-04-21 03:53 -20.55914 148.97289 8201 ft 270 kts 355°
2026-04-21 03:54 -20.54067 148.97140 7938 ft 269 kts 355°
2026-04-21 03:54 -20.52204 148.96988 7660 ft 268 kts 355°
2026-04-21 03:54 -20.50352 148.96838 7383 ft 267 kts 355°
2026-04-21 03:54 -20.48502 148.96688 7106 ft 266 kts 355°
2026-04-21 03:55 -20.46663 148.96539 6830 ft 264 kts 355°
2026-04-21 03:55 -20.44830 148.96390 6555 ft 263 kts 355°
2026-04-21 03:55 -20.43006 148.96242 6282 ft 262 kts 355°
2026-04-21 03:55 -20.41191 148.96095 6022 ft 261 kts 355°
2026-04-21 03:56 -20.39399 148.95950 5889 ft 254 kts 355°
2026-04-21 03:56 -20.37663 148.95809 5773 ft 247 kts 355°
2026-04-21 03:56 -20.35978 148.95674 5678 ft 238 kts 355°
2026-04-21 03:56 -20.34343 148.95694 5543 ft 234 kts 11°
2026-04-21 03:57 -20.32788 148.96117 5401 ft 228 kts 14°
2026-04-21 03:57 -20.31256 148.96523 5187 ft 226 kts 13°
2026-04-21 03:57 -20.29743 148.96907 4939 ft 226 kts 13°
2026-04-21 03:57 -20.28215 148.97289 4705 ft 224 kts 12°
2026-04-21 03:58 -20.26696 148.97642 4346 ft 223 kts
2026-04-21 03:58 -20.25163 148.97597 3984 ft 221 kts 342°
2026-04-21 03:58 -20.23822 148.96852 3752 ft 217 kts 319°
2026-04-21 03:58 -20.22839 148.95641 3515 ft 218 kts 300°
2026-04-21 03:59 -20.22258 148.94163 3233 ft 216 kts 282°
2026-04-21 03:59 -20.22192 148.92603 3047 ft 206 kts 261°
2026-04-21 03:59 -20.22620 148.91211 2956 ft 192 kts 241°
2026-04-21 04:00 -20.24456 148.89254 2146 ft 199 kts 206°
2026-04-21 04:00 -20.25717 148.88826 1980 ft 185 kts 189°
2026-04-21 04:00 -20.26934 148.88813 1780 ft 171 kts 173°
2026-04-21 04:00 -20.28074 148.89182 1598 ft 172 kts 152°
2026-04-21 04:01 -20.29048 148.89819 1375 ft 156 kts 146°
2026-04-21 04:01 -20.29883 148.90462 1194 ft 143 kts 144°
2026-04-21 04:01 -20.30412 148.90884 1080 ft 140 kts 143°
2026-04-21 04:01 -20.31455 148.91722 851 ft 143 kts 143°
2026-04-21 04:02 -20.32257 148.92364 608 ft 144 kts 143°
2026-04-21 04:02 -20.32778 148.92782 527 ft 140 kts 143°
2026-04-21 04:02 -20.33564 148.93410 380 ft 141 kts 143°
2026-04-21 04:02 -20.34336 148.94044 238 ft 140 kts 143°
2026-04-21 04:03 -20.35127 148.94671 46 ft 142 kts 144°
2026-04-21 04:03 -20.35769 148.95182 22 ft 65 kts 143°
2026-04-21 04:03 -20.35998 148.95366 19 ft 37 kts 142°
2026-04-21 04:03 -20.36192 148.95522 20 ft 33 kts 143°
2026-04-21 04:04 -20.36340 148.95635 22 ft 12 kts 160°
2026-04-21 04:04 -20.36411 148.95660 21 ft 12 kts 97°
2026-04-21 04:04 -20.36351 148.95649 22 ft 12 kts 314°
2026-04-21 04:04 -20.36277 148.95590 21 ft 14 kts 323°
2026-04-21 04:05 -20.36193 148.95523 20 ft 16 kts 323°
2026-04-21 04:05 -20.36079 148.95432 20 ft 24 kts 323°
2026-04-21 04:05 -20.35926 148.95308 20 ft 30 kts 323°
2026-04-21 04:05 -20.35754 148.95169 23 ft 31 kts 323°
2026-04-21 04:06 -20.35587 148.95036 24 ft 29 kts 323°
2026-04-21 04:06 -20.35467 148.94940 21 ft 10 kts 323°
2026-04-21 04:06 -20.35401 148.94948 20 ft 12 kts 45°
2026-04-21 04:06 -20.35320 148.94994 19 ft 17 kts 332°
2026-04-21 04:07 -20.35233 148.94911 21 ft 9 kts 308°
2026-04-21 04:07 -20.35221 148.94897 20 ft 1 kts 311°
2026-04-21 04:07 -20.35220 148.94895 19 ft 0 kts 311°